Location: ????
(33.1659°N, 35.6604°E)
Time: 02:10:09
(UTC+00:00)

Nadezhda 1 Rocket - Pass Details

Date: 20 September 2019
Orbit: 942 x 1005 km, 83.0° (Epoch: 19 October)

Event Time Altitude Azimuth Distance (km) Brightness Sun altitude
Rises 16:44:42 0° 193° (SSW) 3,598 7.0 -14.8°
Reaches altitude 10° 16:47:13 10° 197° (SSW) 2,653 6.3 -15.3°
Maximum altitude 16:53:12 63° 277° (W) 1,046 4.4 -16.5°
Drops below altitude 10° 16:59:13 10° 359° (N) 2,667 6.5 -17.8°
Sets 17:01:45 0° 2° (N) 3,619 7.1 -18.3°
